| time (UTC) | temp C | wind direction | speed KPH | gust KPH | rain 1hr cm | rain 24hr cm | rain mn cm | humidity % | barometer mb |
| 20260906215545 | 28 | 127 | 16.1 | 30.6 | 0.00 | 0.00 | 0.00 | 34 | 1022.1 |
| 20260906215046 | 27 | 82 | 11.3 | 22.5 | 0.00 | 0.00 | 0.00 | 35 | 1022.2 |
| 20260906214604 | 27 | 101 | 9.7 | 25.7 | 0.00 | 0.00 | 0.00 | 36 | 1022.4 |
| 20260906214048 | 27 | 104 | 12.9 | 29.0 | 0.00 | 0.00 | 0.00 | 36 | 1022.4 |
| 20260906213545 | 27 | 164 | 11.3 | 29.0 | 0.00 | 0.00 | 0.00 | 36 | 1022.5 |
| 20260906213104 | 27 | 171 | 14.5 | 29.0 | 0.00 | 0.00 | 0.00 | 36 | 1022.6 |
| 20260906212545 | 27 | 142 | 16.1 | 27.4 | 0.00 | 0.00 | 0.00 | 35 | 1022.7 |
| 20260906212049 | 28 | 143 | 14.5 | 29.0 | 0.00 | 0.00 | 0.00 | 34 | 1022.6 |
| 20260906211604 | 28 | 160 | 12.9 | 30.6 | 0.00 | 0.00 | 0.00 | 34 | 1022.6 |
| 20260906211046 | 28 | 159 | 11.3 | 30.6 | 0.00 | 0.00 | 0.00 | 34 | 1022.6 |
| 20260906210548 | 28 | 183 | 9.7 | 24.1 | 0.00 | 0.00 | 0.00 | 34 | 1022.6 |
| 20260906210105 | 28 | 171 | 11.3 | 25.7 | 0.00 | 0.00 | 0.00 | 34 | 1022.7 |
| 20260906205546 | 28 | 134 | 11.3 | 25.7 | 0.00 | 0.00 | 0.00 | 34 | 1022.8 |
| 20260906205045 | 28 | 160 | 9.7 | 22.5 | 0.00 | 0.00 | 0.00 | 35 | 1022.9 |
| 20260906204623 | 28 | 163 | 12.9 | 22.5 | 0.00 | 0.00 | 0.00 | 34 | 1022.9 |
| 20260906204045 | 28 | 139 | 11.3 | 24.1 | 0.00 | 0.00 | 0.00 | 35 | 1022.9 |
| 20260906203545 | 28 | 190 | 12.9 | 24.1 | 0.00 | 0.00 | 0.00 | 34 | 1023.0 |
| 20260906203104 | 28 | 118 | 11.3 | 22.5 | 0.00 | 0.00 | 0.00 | 34 | 1023.0 |
| 20260906202544 | 28 | 128 | 8.0 | 29.0 | 0.00 | 0.00 | 0.00 | 34 | 1023.1 |
| 20260906202045 | 27 | 156 | 12.9 | 29.0 | 0.00 | 0.00 | 0.00 | 31 | 1023.1 |
| 20260906201611 | 27 | 183 | 12.9 | 22.5 | 0.00 | 0.00 | 0.00 | 31 | 1023.2 |
| 20260906201046 | 27 | 200 | 8.0 | 27.4 | 0.00 | 0.00 | 0.00 | 33 | 1023.2 |
| 20260906200545 | 27 | 185 | 11.3 | 27.4 | 0.00 | 0.00 | 0.00 | 33 | 1023.4 |
| 20260906200105 | 27 | 147 | 11.3 | 27.4 | 0.00 | 0.00 | 0.00 | 33 | 1023.4 |
| 20260906195545 | 28 | 181 | 14.5 | 25.7 | 0.00 | 0.00 | 0.00 | 33 | 1023.5 |
| 20260906195049 | 27 | 140 | 11.3 | 27.4 | 0.00 | 0.00 | 0.00 | 34 | 1023.4 |
| 20260906194603 | 27 | 94 | 9.7 | 27.4 | 0.00 | 0.00 | 0.00 | 33 | 1023.5 |
| 20260906194044 | 28 | 142 | 14.5 | 27.4 | 0.00 | 0.00 | 0.00 | 33 | 1023.6 |
| 20260906193545 | 27 | 102 | 9.7 | 24.1 | 0.00 | 0.00 | 0.00 | 34 | 1023.5 |
| 20260906193106 | 27 | 137 | 11.3 | 24.1 | 0.00 | 0.00 | 0.00 | 33 | 1023.8 |
| 20260906192545 | 27 | 121 | 11.3 | 24.1 | 0.00 | 0.00 | 0.00 | 34 | 1023.8 |
| 20260906192046 | 27 | 166 | 9.7 | 24.1 | 0.00 | 0.00 | 0.00 | 34 | 1023.7 |
| 20260906191607 | 27 | 175 | 9.7 | 20.9 | 0.00 | 0.00 | 0.00 | 34 | 1023.8 |
| 20260906191045 | 27 | 123 | 8.0 | 27.4 | 0.00 | 0.00 | 0.00 | 34 | 1023.9 |
| 20260906190549 | 27 | 171 | 12.9 | 29.0 | 0.00 | 0.00 | 0.00 | 33 | 1024.0 |
| 20260906185549 | 27 | 152 | 6.4 | 30.6 | 0.00 | 0.00 | 0.00 | 35 | 1024.1 |
| 20260906185048 | 27 | 165 | 14.5 | 27.4 | 0.00 | 0.00 | 0.00 | 34 | 1024.3 |
| 20260906184603 | 27 | 205 | 8.0 | 25.7 | 0.00 | 0.00 | 0.00 | 34 | 1024.1 |
| 20260906184048 | 27 | 115 | 11.3 | 25.7 | 0.00 | 0.00 | 0.00 | 34 | 1024.3 |
| 20260906183545 | 27 | 84 | 8.0 | 25.7 | 0.00 | 0.00 | 0.00 | 33 | 1024.5 |
| 20260906183104 | 27 | 114 | 14.5 | 24.1 | 0.00 | 0.00 | 0.00 | 32 | 1024.7 |
| 20260906182547 | 27 | 156 | 9.7 | 25.7 | 0.00 | 0.00 | 0.00 | 33 | 1024.8 |
| 20260906182046 | 27 | 82 | 8.0 | 25.7 | 0.00 | 0.00 | 0.00 | 33 | 1024.8 |
| 20260906181602 | 27 | 119 | 12.9 | 25.7 | 0.00 | 0.00 | 0.00 | 33 | 1024.9 |
| 20260906181046 | 26 | 111 | 6.4 | 25.7 | 0.00 | 0.00 | 0.00 | 35 | 1025.0 |
| 20260906180548 | 26 | 95 | 12.9 | 25.7 | 0.00 | 0.00 | 0.00 | 34 | 1025.2 |
| 20260906180107 | 26 | 169 | 9.7 | 20.9 | 0.00 | 0.00 | 0.00 | 33 | 1025.3 |
| 20260906175548 | 26 | 167 | 11.3 | 24.1 | 0.00 | 0.00 | 0.00 | 34 | 1025.4 |
| 20260906175046 | 26 | 178 | 12.9 | 24.1 | 0.00 | 0.00 | 0.00 | 34 | 1025.4 |
| 20260906174605 | 26 | 150 | 12.9 | 20.9 | 0.00 | 0.00 | 0.00 | 33 | 1025.4 |
| 20260906174048 | 26 | 128 | 9.7 | 20.9 | 0.00 | 0.00 | 0.00 | 34 | 1025.5 |
| 20260906173546 | 26 | 178 | 9.7 | 20.9 | 0.00 | 0.00 | 0.00 | 33 | 1025.5 |
| 20260906173104 | 26 | 110 | 6.4 | 17.7 | 0.00 | 0.00 | 0.00 | 32 | 1025.6 |
| 20260906172545 | 26 | 106 | 9.7 | 17.7 | 0.00 | 0.00 | 0.00 | 33 | 1025.6 |
| 20260906172044 | 26 | 84 | 9.7 | 19.3 | 0.00 | 0.00 | 0.00 | 33 | 1025.7 |
| 20260906171602 | 26 | 217 | 4.8 | 19.3 | 0.00 | 0.00 | 0.00 | 34 | 1025.7 |
| 20260906171045 | 26 | 111 | 3.2 | 14.5 | 0.00 | 0.00 | 0.00 | 34 | 1025.7 |
| 20260906170545 | 25 | 0 | 6.4 | 14.5 | 0.00 | 0.00 | 0.00 | 34 | 1025.8 |
| 20260906170106 | 26 | 158 | 4.8 | 14.5 | 0.00 | 0.00 | 0.00 | 34 | 1025.8 |
| 20260906165546 | 25 | 118 | 3.2 | 14.5 | 0.00 | 0.00 | 0.00 | 35 | 1025.8 |
| 20260906165045 | 25 | 261 | 3.2 | 14.5 | 0.00 | 0.00 | 0.00 | 35 | 1025.8 |
| 20260906164610 | 25 | 0 | 3.2 | 14.5 | 0.00 | 0.00 | 0.00 | 38 | 1025.9 |
| 20260906164045 | 24 | 352 | 3.2 | 14.5 | 0.00 | 0.00 | 0.00 | 36 | 1025.9 |
| 20260906163545 | 25 | 30 | 3.2 | 11.3 | 0.00 | 0.00 | 0.00 | 36 | 1026.0 |
| 20260906163104 | 24 | 139 | 4.8 | 9.7 | 0.00 | 0.00 | 0.00 | 36 | 1025.9 |
| 20260906162546 | 24 | 0 | 1.6 | 8.0 | 0.00 | 0.00 | 0.00 | 38 | 1026.0 |
| 20260906162045 | 24 | 0 | 1.6 | 9.7 | 0.00 | 0.00 | 0.00 | 35 | 1026.1 |
| 20260906161603 | 24 | 105 | 1.6 | 9.7 | 0.00 | 0.00 | 0.00 | 36 | 1026.0 |
| 20260906161045 | 24 | 77 | 1.6 | 9.7 | 0.00 | 0.00 | 0.00 | 36 | 1026.1 |
| 20260906160545 | 24 | 71 | 3.2 | 9.7 | 0.00 | 0.00 | 0.00 | 35 | 1026.1 |
| 20260906160100 | 24 | 100 | 1.6 | 12.9 | 0.00 | 0.00 | 0.00 | 37 | 1026.0 |
| 20260906155545 | 24 | 109 | 3.2 | 12.9 | 0.00 | 0.00 | 0.00 | 36 | 1026.0 |
| 20260906155050 | 23 | 94 | 3.2 | 12.9 | 0.00 | 0.00 | 0.00 | 36 | 1026.0 |
| 20260906154607 | 23 | 82 | 4.8 | 8.0 | 0.00 | 0.00 | 0.00 | 37 | 1025.9 |
| 20260906154045 | 23 | 144 | 3.2 | 11.3 | 0.00 | 0.00 | 0.00 | 39 | 1025.9 |
| 20260906153548 | 23 | 149 | 4.8 | 11.3 | 0.00 | 0.00 | 0.00 | 40 | 1025.9 |
| 20260906153103 | 23 | 152 | 3.2 | 14.5 | 0.00 | 0.00 | 0.00 | 41 | 1025.7 |
| 20260906152545 | 23 | 101 | 6.4 | 14.5 | 0.00 | 0.00 | 0.00 | 42 | 1025.7 |
| 20260906152046 | 23 | 84 | 4.8 | 11.3 | 0.00 | 0.00 | 0.00 | 41 | 1025.8 |
| 20260906151603 | 22 | 0 | 1.6 | 6.4 | 0.00 | 0.00 | 0.00 | 41 | 1025.7 |
| 20260906151046 | 22 | 0 | 0.0 | 6.4 | 0.00 | 0.00 | 0.00 | 42 | 1025.6 |
| 20260906150545 | 22 | 0 | 0.0 | 6.4 | 0.00 | 0.00 | 0.00 | 42 | 1025.6 |
| 20260906150105 | 22 | 107 | 3.2 | 6.4 | 0.00 | 0.00 | 0.00 | 42 | 1025.7 |
| 20260906145548 | 22 | 159 | 0.0 | 6.4 | 0.00 | 0.00 | 0.00 | 45 | 1025.7 |
| 20260906145046 | 21 | 81 | 0.0 | 4.8 | 0.00 | 0.00 | 0.00 | 45 | 1025.6 |
| 20260906144605 | 21 | 90 | 0.0 | 8.0 | 0.00 | 0.00 | 0.00 | 43 | 1025.7 |
| 20260906144047 | 21 | 0 | 1.6 | 8.0 | 0.00 | 0.00 | 0.00 | 44 | 1025.6 |
| 20260906143546 | 21 | 0 | 0.0 | 4.8 | 0.00 | 0.00 | 0.00 | 44 | 1025.6 |
| 20260906143112 | 20 | 0 | 1.6 | 4.8 | 0.00 | 0.00 | 0.00 | 46 | 1025.6 |
| 20260906142545 | 20 | 360 | 0.0 | 3.2 | 0.00 | 0.00 | 0.00 | 46 | 1025.6 |
| 20260906142046 | 20 | 0 | 0.0 | 4.8 | 0.00 | 0.00 | 0.00 | 48 | 1025.6 |
| 20260906141603 | 20 | 0 | 0.0 | 6.4 | 0.00 | 0.00 | 0.00 | 47 | 1025.6 |
| 20260906141045 | 20 | 27 | 3.2 | 6.4 | 0.00 | 0.00 | 0.00 | 47 | 1025.6 |
| 20260906140546 | 20 | 100 | 1.6 | 6.4 | 0.00 | 0.00 | 0.00 | 46 | 1025.6 |
| 20260906140107 | 20 | 65 | 1.6 | 6.4 | 0.00 | 0.00 | 0.00 | 47 | 1025.4 |
| 20260906135545 | 19 | 63 | 0.0 | 6.4 | 0.00 | 0.00 | 0.00 | 49 | 1025.5 |
| 20260906135044 | 19 | 94 | 3.2 | 6.4 | 0.00 | 0.00 | 0.00 | 48 | 1025.3 |
| 20260906134605 | 18 | 0 | 0.0 | 4.8 | 0.00 | 0.00 | 0.00 | 49 | 1025.3 |
| 20260906134045 | 18 | 0 | 0.0 | 6.4 | 0.00 | 0.00 | 0.00 | 50 | 1025.3 |
| 20260906133545 | 18 | 0 | 1.6 | 6.4 | 0.00 | 0.00 | 0.00 | 50 | 1025.2 |
| 20260906133111 | 18 | 58 | 0.0 | 6.4 | 0.00 | 0.00 | 0.00 | 51 | 1025.2 |
| 20260906132546 | 17 | 0 | 0.0 | 4.8 | 0.00 | 0.00 | 0.00 | 51 | 1025.2 |
| 20260906132045 | 17 | 0 | 0.0 | 6.4 | 0.00 | 0.00 | 0.00 | 51 | 1025.1 |
| 20260906131606 | 17 | 0 | 0.0 | 6.4 | 0.00 | 0.00 | 0.00 | 51 | 1025.1 |
| 20260906131045 | 17 | 78 | 3.2 | 6.4 | 0.00 | 0.00 | 0.00 | 50 | 1025.0 |
| 20260906130548 | 17 | 82 | 1.6 | 8.0 | 0.00 | 0.00 | 0.00 | 50 | 1025.0 |
| 20260906130104 | 17 | 55 | 1.6 | 8.0 | 0.00 | 0.00 | 0.00 | 51 | 1025.0 |
| 20260906125545 | 17 | 76 | 3.2 | 9.7 | 0.00 | 0.00 | 0.00 | 51 | 1025.1 |
| 20260906125048 | 17 | 108 | 4.8 | 11.3 | 0.00 | 0.00 | 0.00 | 51 | 1025.0 |
| 20260906124603 | 16 | 94 | 1.6 | 11.3 | 0.00 | 0.00 | 0.00 | 52 | 1025.0 |
| 20260906124046 | 16 | 92 | 4.8 | 11.3 | 0.00 | 0.00 | 0.00 | 52 | 1025.0 |
| 20260906123547 | 16 | 0 | 3.2 | 9.7 | 0.00 | 0.00 | 0.00 | 52 | 1024.9 |
| 20260906123111 | 16 | 102 | 3.2 | 8.0 | 0.00 | 0.00 | 0.00 | 53 | 1024.8 |
| 20260906122545 | 16 | 0 | 0.0 | 6.4 | 0.00 | 0.00 | 0.00 | 54 | 1024.8 |
| 20260906122045 | 16 | 0 | 0.0 | 4.8 | 0.00 | 0.00 | 0.00 | 53 | 1024.8 |
| 20260906121607 | 16 | 0 | 0.0 | 4.8 | 0.00 | 0.00 | 0.00 | 53 | 1024.7 |
| 20260906121046 | 16 | 0 | 0.0 | 11.3 | 0.00 | 0.00 | 0.00 | 53 | 1024.8 |
| 20260906120545 | 16 | 0 | 1.6 | 11.3 | 0.00 | 0.00 | 0.00 | 53 | 1024.9 |
| 20260906120147 | 16 | 82 | 1.6 | 6.4 | 0.00 | 0.00 | 0.00 | 53 | 1024.8 |
| 20260906115545 | 16 | 0 | 0.0 | 8.0 | 0.00 | 0.00 | 0.00 | 53 | 1024.8 |
| 20260906115049 | 16 | 0 | 0.0 | 8.0 | 0.00 | 0.00 | 0.00 | 53 | 1024.8 |
| 20260906114634 | 16 | 58 | 1.6 | 9.7 | 0.00 | 0.00 | 0.00 | 53 | 1024.8 |
| 20260906114045 | 16 | 0 | 1.6 | 9.7 | 0.00 | 0.00 | 0.00 | 53 | 1024.7 |
| 20260906113546 | 16 | 107 | 3.2 | 9.7 | 0.00 | 0.00 | 0.00 | 53 | 1024.7 |
| 20260906113102 | 16 | 88 | 4.8 | 9.7 | 0.00 | 0.00 | 0.00 | 53 | 1024.7 |
| 20260906112545 | 16 | 0 | 0.0 | 0.0 | 0.00 | 0.00 | 0.00 | 54 | 1024.7 |
| 20260906112046 | 16 | 0 | 0.0 | 0.0 | 0.00 | 0.00 | 0.00 | 53 | 1024.7 |
| 20260906111622 | 16 | 0 | 0.0 | 0.0 | 0.00 | 0.00 | 0.00 | 53 | 1024.6 |
| 20260906111046 | 16 | 0 | 0.0 | 8.0 | 0.00 | 0.00 | 0.00 | 53 | 1024.6 |
| 20260906110545 | 16 | 0 | 1.6 | 8.0 | 0.00 | 0.00 | 0.00 | 53 | 1024.6 |
| 20260906105545 | 16 | 0 | 0.0 | 3.2 | 0.00 | 0.00 | 0.00 | 54 | 1024.5 |
| 20260906105048 | 16 | 0 | 0.0 | 0.0 | 0.00 | 0.00 | 0.00 | 53 | 1024.5 |
| 20260906104602 | 16 | 0 | 0.0 | 0.0 | 0.00 | 0.00 | 0.00 | 52 | 1024.6 |
| 20260906104045 | 16 | 0 | 0.0 | 0.0 | 0.00 | 0.00 | 0.00 | 52 | 1024.6 |
| 20260906103545 | 16 | 0 | 0.0 | 3.2 | 0.00 | 0.00 | 0.00 | 52 | 1024.6 |
| 20260906103112 | 17 | 0 | 0.0 | 4.8 | 0.00 | 0.00 | 0.00 | 52 | 1024.7 |
| 20260906102545 | 17 | 0 | 1.6 | 4.8 | 0.00 | 0.00 | 0.00 | 52 | 1024.6 |
| 20260906102046 | 17 | 0 | 0.0 | 3.2 | 0.00 | 0.00 | 0.00 | 52 | 1024.7 |
| 20260906101603 | 17 | 0 | 0.0 | 3.2 | 0.00 | 0.00 | 0.00 | 52 | 1024.6 |
| 20260906101045 | 16 | 0 | 0.0 | 11.3 | 0.00 | 0.00 | 0.00 | 53 | 1024.7 |
| 20260906100545 | 16 | 0 | 1.6 | 11.3 | 0.00 | 0.00 | 0.00 | 52 | 1024.8 |
| 20260906100104 | 16 | 0 | 3.2 | 11.3 | 0.00 | 0.00 | 0.00 | 53 | 1024.8 |
| 20260906095546 | 16 | 294 | 0.0 | 4.8 | 0.00 | 0.00 | 0.00 | 52 | 1024.9 |
| 20260906095045 | 17 | 0 | 0.0 | 0.0 | 0.00 | 0.00 | 0.00 | 53 | 1025.0 |
| 20260906094605 | 17 | 0 | 0.0 | 0.0 | 0.00 | 0.00 | 0.00 | 53 | 1025.0 |
| 20260906094045 | 17 | 0 | 0.0 | 0.0 | 0.00 | 0.00 | 0.00 | 52 | 1025.0 |
| 20260906093546 | 17 | 0 | 0.0 | 0.0 | 0.00 | 0.00 | 0.00 | 51 | 1025.0 |
| 20260906093105 | 17 | 0 | 0.0 | 0.0 | 0.00 | 0.00 | 0.00 | 51 | 1025.0 |
| 20260906092548 | 17 | 0 | 0.0 | 3.2 | 0.00 | 0.00 | 0.00 | 50 | 1024.9 |
| 20260906092046 | 18 | 0 | 0.0 | 3.2 | 0.00 | 0.00 | 0.00 | 50 | 1024.8 |
| 20260906091607 | 18 | 0 | 0.0 | 4.8 | 0.00 | 0.00 | 0.00 | 49 | 1024.8 |
| 20260906091045 | 18 | 0 | 0.0 | 6.4 | 0.00 | 0.00 | 0.00 | 49 | 1024.8 |
| 20260906090546 | 18 | 92 | 0.0 | 6.4 | 0.00 | 0.00 | 0.00 | 49 | 1024.7 |
| 20260906090105 | 19 | 45 | 1.6 | 9.7 | 0.00 | 0.00 | 0.00 | 48 | 1024.7 |
| 20260906085547 | 19 | 0 | 3.2 | 12.9 | 0.00 | 0.00 | 0.00 | 47 | 1024.6 |
| 20260906085045 | 19 | 304 | 6.4 | 12.9 | 0.00 | 0.00 | 0.00 | 46 | 1024.8 |
| 20260906084603 | 20 | 338 | 6.4 | 16.1 | 0.00 | 0.00 | 0.00 | 46 | 1024.8 |
| 20260906084046 | 20 | 286 | 11.3 | 20.9 | 0.00 | 0.00 | 0.00 | 44 | 1024.7 |
| 20260906083545 | 20 | 293 | 11.3 | 20.9 | 0.00 | 0.00 | 0.00 | 45 | 1024.7 |
| 20260906083106 | 20 | 300 | 8.0 | 17.7 | 0.00 | 0.00 | 0.00 | 45 | 1024.8 |
| 20260906082545 | 19 | 257 | 9.7 | 17.7 | 0.00 | 0.00 | 0.00 | 46 | 1024.9 |
| 20260906082045 | 19 | 294 | 4.8 | 19.3 | 0.00 | 0.00 | 0.00 | 47 | 1024.8 |
| 20260906081600 | 19 | 317 | 11.3 | 19.3 | 0.00 | 0.00 | 0.00 | 47 | 1024.9 |
| 20260906081045 | 19 | 266 | 8.0 | 19.3 | 0.00 | 0.00 | 0.00 | 49 | 1024.9 |
| 20260906080545 | 18 | 270 | 6.4 | 19.3 | 0.00 | 0.00 | 0.00 | 52 | 1024.9 |
| 20260906080058 | 18 | 257 | 11.3 | 19.3 | 0.00 | 0.00 | 0.00 | 55 | 1024.9 |
| 20260906075549 | 18 | 277 | 0.0 | 14.5 | 0.00 | 0.00 | 0.00 | 57 | 1024.9 |
| 20260906075046 | 18 | 278 | 4.8 | 14.5 | 0.00 | 0.00 | 0.00 | 58 | 1025.0 |
| 20260906074602 | 17 | 271 | 8.0 | 14.5 | 0.00 | 0.00 | 0.00 | 61 | 1025.0 |
| 20260906074044 | 17 | 282 | 6.4 | 12.9 | 0.00 | 0.00 | 0.00 | 62 | 1025.0 |
| 20260906073546 | 17 | 207 | 0.0 | 6.4 | 0.00 | 0.00 | 0.00 | 64 | 1025.1 |
| 20260906073101 | 17 | 0 | 1.6 | 6.4 | 0.00 | 0.00 | 0.00 | 65 | 1025.2 |
| 20260906072546 | 17 | 271 | 0.0 | 6.4 | 0.00 | 0.00 | 0.00 | 66 | 1025.2 |
| 20260906072046 | 17 | 0 | 1.6 | 6.4 | 0.00 | 0.00 | 0.00 | 65 | 1025.3 |
| 20260906071559 | 17 | 0 | 0.0 | 6.4 | 0.00 | 0.00 | 0.00 | 66 | 1025.2 |
| 20260906071045 | 17 | 0 | 3.2 | 9.7 | 0.00 | 0.00 | 0.00 | 65 | 1025.3 |
| 20260906070549 | 17 | 0 | 1.6 | 9.7 | 0.00 | 0.00 | 0.00 | 65 | 1025.2 |
| 20260906070058 | 17 | 200 | 4.8 | 9.7 | 0.00 | 0.00 | 0.00 | 64 | 1025.1 |
| 20260906065545 | 17 | 281 | 3.2 | 6.4 | 0.00 | 0.00 | 0.00 | 63 | 1025.2 |
| 20260906065044 | 17 | 315 | 0.0 | 6.4 | 0.00 | 0.00 | 0.00 | 61 | 1025.3 |
| 20260906064604 | 17 | 0 | 0.0 | 6.4 | 0.00 | 0.00 | 0.00 | 60 | 1025.6 |
| 20260906064045 | 18 | 302 | 4.8 | 11.3 | 0.00 | 0.00 | 0.00 | 59 | 1025.5 |
| 20260906063547 | 18 | 303 | 0.0 | 11.3 | 0.00 | 0.00 | 0.00 | 60 | 1025.6 |
| 20260906063101 | 18 | 68 | 0.0 | 11.3 | 0.00 | 0.00 | 0.00 | 59 | 1025.5 |
| 20260906062545 | 18 | 188 | 1.6 | 12.9 | 0.00 | 0.00 | 0.00 | 57 | 1025.4 |
| 20260906062045 | 18 | 212 | 3.2 | 12.9 | 0.00 | 0.00 | 0.00 | 56 | 1025.3 |
| 20260906061600 | 18 | 213 | 6.4 | 12.9 | 0.00 | 0.00 | 0.00 | 56 | 1025.1 |
| 20260906061045 | 18 | 152 | 0.0 | 16.1 | 0.00 | 0.00 | 0.00 | 58 | 1025.0 |
| 20260906060545 | 17 | 237 | 8.0 | 16.1 | 0.00 | 0.00 | 0.00 | 61 | 1024.9 |
| 20260906060112 | 17 | 304 | 4.8 | 11.3 | 0.00 | 0.00 | 0.00 | 63 | 1025.0 |
| 20260906055545 | 16 | 313 | 4.8 | 11.3 | 0.00 | 0.00 | 0.00 | 66 | 1025.0 |
| 20260906055045 | 16 | 0 | 0.0 | 0.0 | 0.00 | 0.00 | 0.00 | 66 | 1025.1 |
| 20260906054632 | 16 | 0 | 0.0 | 0.0 | 0.00 | 0.00 | 0.00 | 67 | 1025.0 |
| 20260906054046 | 16 | 0 | 0.0 | 0.0 | 0.00 | 0.00 | 0.00 | 67 | 1025.0 |
| 20260906053547 | 17 | 0 | 0.0 | 0.0 | 0.00 | 0.00 | 0.00 | 67 | 1024.9 |
| 20260906053101 | 17 | 0 | 0.0 | 0.0 | 0.00 | 0.00 | 0.00 | 66 | 1025.0 |
| 20260906052547 | 17 | 0 | 0.0 | 0.0 | 0.00 | 0.00 | 0.00 | 66 | 1025.0 |
| 20260906052047 | 17 | 0 | 0.0 | 0.0 | 0.00 | 0.00 | 0.00 | 65 | 1025.0 |
| 20260906051559 | 17 | 0 | 0.0 | 0.0 | 0.00 | 0.00 | 0.00 | 65 | 1024.9 |
| 20260906051046 | 17 | 0 | 0.0 | 0.0 | 0.00 | 0.00 | 0.00 | 65 | 1025.0 |
| 20260906050546 | 17 | 0 | 0.0 | 0.0 | 0.00 | 0.00 | 0.00 | 64 | 1025.1 |
| 20260906050105 | 18 | 0 | 0.0 | 0.0 | 0.00 | 0.00 | 0.00 | 64 | 1025.0 |
| 20260906045545 | 18 | 0 | 0.0 | 0.0 | 0.00 | 0.00 | 0.00 | 63 | 1025.1 |
| 20260906045045 | 18 | 0 | 0.0 | 0.0 | 0.00 | 0.00 | 0.00 | 63 | 1025.2 |
| 20260906044604 | 18 | 0 | 0.0 | 0.0 | 0.00 | 0.00 | 0.00 | 62 | 1025.2 |
| 20260906044047 | 18 | 0 | 0.0 | 0.0 | 0.00 | 0.00 | 0.00 | 62 | 1025.1 |
| 20260906043545 | 18 | 0 | 0.0 | 8.0 | 0.00 | 0.00 | 0.00 | 62 | 1025.2 |
| 20260906043100 | 18 | 0 | 0.0 | 8.0 | 0.00 | 0.00 | 0.00 | 62 | 1025.2 |
| 20260906042545 | 18 | 229 | 3.2 | 8.0 | 0.00 | 0.00 | 0.00 | 62 | 1025.4 |
| 20260906042045 | 18 | 214 | 0.0 | 4.8 | 0.00 | 0.00 | 0.00 | 61 | 1025.3 |
| 20260906041558 | 18 | 0 | 0.0 | 0.0 | 0.00 | 0.00 | 0.00 | 61 | 1025.3 |
| 20260906041046 | 18 | 0 | 0.0 | 0.0 | 0.00 | 0.00 | 0.00 | 60 | 1025.4 |
| 20260906040545 | 18 | 0 | 0.0 | 4.8 | 0.00 | 0.00 | 0.00 | 60 | 1025.3 |
| 20260906040121 | 18 | 0 | 0.0 | 4.8 | 0.00 | 0.00 | 0.00 | 60 | 1025.2 |
| 20260906035545 | 19 | 0 | 0.0 | 6.4 | 0.00 | 0.00 | 0.00 | 60 | 1025.2 |
| 20260906035045 | 19 | 0 | 1.6 | 6.4 | 0.00 | 0.00 | 0.00 | 60 | 1025.3 |
| 20260906034604 | 19 | 233 | 0.0 | 9.7 | 0.00 | 0.00 | 0.00 | 59 | 1025.4 |
| 20260906034045 | 19 | 205 | 1.6 | 9.7 | 0.00 | 0.00 | 0.00 | 60 | 1025.4 |
| 20260906033545 | 18 | 232 | 1.6 | 6.4 | 0.00 | 0.00 | 0.00 | 61 | 1025.5 |
| 20260906033126 | 18 | 259 | 1.6 | 6.4 | 0.00 | 0.00 | 0.00 | 60 | 1025.5 |
| 20260906032545 | 19 | 0 | 0.0 | 4.8 | 0.00 | 0.00 | 0.00 | 58 | 1025.5 |
| 20260906032045 | 19 | 0 | 1.6 | 4.8 | 0.00 | 0.00 | 0.00 | 58 | 1025.5 |
| 20260906031612 | 19 | 0 | 1.6 | 4.8 | 0.00 | 0.00 | 0.00 | 57 | 1025.4 |
| 20260906031047 | 19 | 275 | 0.0 | 3.2 | 0.00 | 0.00 | 0.00 | 55 | 1025.4 |
| 20260906030546 | 19 | 0 | 0.0 | 3.2 | 0.00 | 0.00 | 0.00 | 53 | 1025.4 |
| 20260906030104 | 18 | 0 | 0.0 | 6.4 | 0.00 | 0.00 | 0.00 | 52 | 1025.3 |
| 20260906025546 | 18 | 0 | 3.2 | 6.4 | 0.00 | 0.00 | 0.00 | 50 | 1025.2 |
| 20260906025045 | 18 | 262 | 3.2 | 6.4 | 0.00 | 0.00 | 0.00 | 47 | 1025.1 |
| 20260906024607 | 18 | 246 | 3.2 | 19.3 | 0.00 | 0.00 | 0.00 | 45 | 1025.0 |
| 20260906024045 | 18 | 0 | 3.2 | 19.3 | 0.00 | 0.00 | 0.00 | 46 | 1025.0 |
| 20260906023545 | 18 | 128 | 3.2 | 6.4 | 0.00 | 0.00 | 0.00 | 46 | 1024.7 |
| 20260906023102 | 18 | 0 | 0.0 | 0.0 | 0.00 | 0.00 | 0.00 | 44 | 1024.2 |
| 20260906022545 | 18 | 0 | 0.0 | 0.0 | 0.00 | 0.00 | 0.00 | 44 | 1024.1 |
| 20260906022049 | 18 | 0 | 0.0 | 0.0 | 0.00 | 0.00 | 0.00 | 44 | 1024.1 |
| 20260906021609 | 18 | 0 | 0.0 | 0.0 | 0.00 | 0.00 | 0.00 | 44 | 1024.0 |
| 20260906021045 | 18 | 0 | 0.0 | 0.0 | 0.00 | 0.00 | 0.00 | 43 | 1023.9 |
| 20260906020545 | 18 | 0 | 0.0 | 0.0 | 0.00 | 0.00 | 0.00 | 44 | 1023.8 |
| 20260906015548 | 19 | 0 | 0.0 | 0.0 | 0.00 | 0.00 | 0.00 | 43 | 1023.9 |
| 20260906015045 | 19 | 0 | 0.0 | 0.0 | 0.00 | 0.00 | 0.00 | 42 | 1023.8 |
| 20260906014603 | 20 | 0 | 0.0 | 0.0 | 0.00 | 0.00 | 0.00 | 42 | 1023.8 |
| 20260906014052 | 20 | 0 | 0.0 | 0.0 | 0.00 | 0.00 | 0.00 | 41 | 1023.7 |
| 20260906013552 | 20 | 0 | 0.0 | 0.0 | 0.00 | 0.00 | 0.00 | 40 | 1023.7 |
| 20260906013109 | 21 | 0 | 0.0 | 0.0 | 0.00 | 0.00 | 0.00 | 39 | 1023.7 |
| 20260906012549 | 21 | 0 | 0.0 | 0.0 | 0.00 | 0.00 | 0.00 | 39 | 1023.6 |
| 20260906012046 | 22 | 0 | 0.0 | 0.0 | 0.00 | 0.00 | 0.00 | 38 | 1023.6 |
| 20260906011606 | 23 | 0 | 0.0 | 0.0 | 0.00 | 0.00 | 0.00 | 37 | 1023.6 |
| 20260906011051 | 23 | 0 | 0.0 | 0.0 | 0.00 | 0.00 | 0.00 | 36 | 1023.6 |
| 20260906010545 | 23 | 0 | 0.0 | 0.0 | 0.00 | 0.00 | 0.00 | 36 | 1023.6 |
| 20260906010103 | 24 | 0 | 0.0 | 0.0 | 0.00 | 0.00 | 0.00 | 35 | 1023.7 |
| 20260906005545 | 24 | 0 | 0.0 | 1.6 | 0.00 | 0.00 | 0.00 | 35 | 1023.8 |
| 20260906005048 | 25 | 0 | 0.0 | 1.6 | 0.00 | 0.00 | 0.00 | 34 | 1023.8 |
| 20260906004607 | 25 | 329 | 0.0 | 3.2 | 0.00 | 0.00 | 0.00 | 32 | 1023.8 |
| 20260906004047 | 25 | 0 | 0.0 | 6.4 | 0.00 | 0.00 | 0.00 | 31 | 1023.9 |
| 20260906003545 | 25 | 270 | 1.6 | 14.5 | 0.00 | 0.00 | 0.00 | 32 | 1023.8 |
| 20260906003104 | 24 | 277 | 8.0 | 19.3 | 0.00 | 0.00 | 0.00 | 31 | 1023.9 |
| 20260906002548 | 24 | 284 | 11.3 | 22.5 | 0.00 | 0.00 | 0.00 | 31 | 1023.9 |
| 20260906002049 | 24 | 252 | 12.9 | 27.4 | 0.00 | 0.00 | 0.00 | 32 | 1024.0 |
| 20260906001602 | 24 | 299 | 16.1 | 27.4 | 0.00 | 0.00 | 0.00 | 31 | 1024.2 |
| 20260906001045 | 24 | 306 | 16.1 | 24.1 | 0.00 | 0.00 | 0.00 | 31 | 1024.0 |
| 20260906000551 | 24 | 298 | 11.3 | 17.7 | 0.00 | 0.00 | 0.00 | 31 | 1024.1 |
| 20260906000107 | 24 | 307 | 11.3 | 19.3 | 0.00 | 0.00 | 0.00 | 31 | 1024.0 |
| 20260905235547 | 24 | 271 | 9.7 | 19.3 | 0.00 | 0.00 | 0.00 | 32 | 1024.0 |
| 20260905235045 | 24 | 294 | 11.3 | 20.9 | 0.00 | 0.00 | 0.00 | 32 | 1023.9 |
| 20260905234602 | 24 | 294 | 14.5 | 20.9 | 0.00 | 0.00 | 0.00 | 32 | 1023.9 |
| 20260905234045 | 24 | 282 | 11.3 | 17.7 | 0.00 | 0.00 | 0.00 | 32 | 1023.9 |
| 20260905233549 | 24 | 269 | 9.7 | 16.1 | 0.00 | 0.00 | 0.00 | 32 | 1023.9 |
| 20260905233104 | 24 | 300 | 0.0 | 3.2 | 0.00 | 0.00 | 0.00 | 34 | 1023.8 |
| 20260905232546 | 25 | 0 | 0.0 | 3.2 | 0.00 | 0.00 | 0.00 | 35 | 1023.8 |
| 20260905232052 | 25 | 190 | 0.0 | 8.0 | 0.00 | 0.00 | 0.00 | 34 | 1023.8 |
| 20260905231601 | 25 | 0 | 0.0 | 9.7 | 0.00 | 0.00 | 0.00 | 31 | 1023.7 |
| 20260905231045 | 25 | 0 | 3.2 | 11.3 | 0.00 | 0.00 | 0.00 | 33 | 1023.8 |
| 20260905230550 | 25 | 240 | 4.8 | 11.3 | 0.00 | 0.00 | 0.00 | 32 | 1023.8 |
| 20260905225547 | 25 | 273 | 0.0 | 1.6 | 0.00 | 0.00 | 0.00 | 32 | 1023.8 |
| 20260905225048 | 25 | 0 | 0.0 | 1.6 | 0.00 | 0.00 | 0.00 | 33 | 1023.7 |
| 20260905224611 | 25 | 0 | 0.0 | 3.2 | 0.00 | 0.00 | 0.00 | 32 | 1023.7 |
| 20260905224044 | 25 | 0 | 0.0 | 6.4 | 0.00 | 0.00 | 0.00 | 30 | 1023.8 |
| 20260905223546 | 25 | 0 | 1.6 | 8.0 | 0.00 | 0.00 | 0.00 | 31 | 1023.9 |
| 20260905223100 | 25 | 144 | 0.0 | 8.0 | 0.00 | 0.00 | 0.00 | 30 | 1023.9 |
| 20260905222545 | 25 | 175 | 0.0 | 8.0 | 0.00 | 0.00 | 0.00 | 31 | 1024.0 |
| 20260905222045 | 25 | 134 | 1.6 | 9.7 | 0.00 | 0.00 | 0.00 | 30 | 1024.0 |
| 20260905221557 | 25 | 132 | 3.2 | 9.7 | 0.00 | 0.00 | 0.00 | 30 | 1024.1 |
| 20260905221045 | 25 | 0 | 1.6 | 9.7 | 0.00 | 0.00 | 0.00 | 31 | 1024.3 |
| 20260905220545 | 25 | 190 | 1.6 | 14.5 | 0.00 | 0.00 | 0.00 | 31 | 1024.3 |
| 20260905220106 | 26 | 180 | 4.8 | 16.1 | 0.00 | 0.00 | 0.00 | 29 | 1024.7 |